Weather History for Butte, MT

Change the Weather History Date:

Thursday, January 24, 2013

  Actual Average Record
Temperature  
Mean Temperature 26 °F 20 °F  
Max Temperature 41 °F 32 °F 56 °F (2005)
Min Temperature 11 °F 8 °F -38 °F (1949)
Degree Days  
Heating Degree Days 39 45  
Month to date heating degree days 1214 1094  
Since 1 July heating degree days 4879 5058  
Cooling Degree Days 0 0  
Month to date cooling degree days 0 0  
Year to date cooling degree days 0 0  
Moisture  
Dew Point 20 °F    
Average Humidity 65    
Maximum Humidity 88    
Minimum Humidity 41    
Precipitation  
Precipitation 0.00 in 0.01 in 0.60 in (1897)
Month to date precipitation 0.07 0.37  
Year to date precipitation 0.07 0.37  
Sea Level Pressure  
Sea Level Pressure 30.11 in    
Wind  
Wind Speed 4 mph (West)    
Max Wind Speed 15 mph    
Max Gust Speed 21 mph    
Visibility 10 miles    
Events      
T = Trace of Precipitation, MM = Missing Value Source: NWS Daily Summary

Daily Weather History Graph

Daily Weather History Graph

Search for Another Location

Airport:

Trip Planner

Search our weather history database for the weather conditions in past years. The results will help you decide how hot, cold, wet, or windy it might be!

Date:

Astronomy

Jan. 24, 2013 Rise Set
Actual Time 8:00 AM MST 5:24 PM MST
Civil Twilight 7:27 AM MST 5:56 PM MST
Nautical Twilight 6:51 AM MST 6:33 PM MST
Astronomical Twilight 6:16 AM MST 7:08 PM MST
Moon 3:28 PM MST (1/24) 6:02 AM MST (1/24)
Length of Visible Light 10h 29m
Length of Day
9h 23m
Waxing Gibbous, 95% of the Moon is Illuminated
Jan 24
Waxing Gibbous
Jan 26
Full
Feb 3
Last Quarter
Feb 10
New
Feb 17
First Quarter

Hourly Weather History & Observations

Time (MST) Temp. Windchill Dew Point Humidity Pressure Visibility Wind Dir Wind Speed Gust Speed Precip Events Conditions
12:53 AM 32.0 °F - 19.0 °F 59% 30.04 in 10.0 mi Calm Calm - N/A   Overcast
1:53 AM 36.0 °F 32.1 °F 18.0 °F 48% 30.01 in 10.0 mi ENE 4.6 mph - N/A   Overcast
2:53 AM 35.1 °F - 19.0 °F 52% 30.02 in 10.0 mi Calm Calm - N/A   Overcast
3:53 AM 39.0 °F - 25.0 °F 57% 30.00 in 10.0 mi Calm Calm - N/A   Overcast
4:53 AM 39.0 °F - 25.0 °F 57% 30.01 in 10.0 mi Calm Calm - N/A   Overcast
5:53 AM 39.0 °F 32.3 °F 27.0 °F 62% 30.01 in 10.0 mi SW 10.4 mph - N/A   Overcast
6:53 AM 39.0 °F 36.8 °F 26.1 °F 60% 30.02 in 10.0 mi SW 3.5 mph - N/A   Mostly Cloudy
7:53 AM 37.0 °F 31.0 °F 26.1 °F 65% 30.05 in 10.0 mi North 8.1 mph - N/A   Overcast
8:53 AM 37.0 °F - 26.1 °F 65% 30.07 in 10.0 mi Calm Calm - N/A   Overcast
9:53 AM 36.0 °F 27.5 °F 26.1 °F 67% 30.12 in 10.0 mi NNW 12.7 mph - N/A   Overcast
10:53 AM 36.0 °F 28.5 °F 23.0 °F 59% 30.12 in 10.0 mi NW 10.4 mph - N/A   Overcast
11:53 AM 37.9 °F 30.9 °F 23.0 °F 55% 30.12 in 10.0 mi WNW 10.4 mph - N/A   Scattered Clouds
12:53 PM 39.0 °F 31.4 °F 23.0 °F 53% 30.09 in 10.0 mi West 12.7 mph 18.4 mph N/A   Clear
1:53 PM 41.0 °F 35.8 °F 19.9 °F 43% 30.07 in 10.0 mi West 8.1 mph - N/A   Clear
2:53 PM 39.9 °F 35.8 °F 21.0 °F 47% 30.09 in 10.0 mi WSW 5.8 mph - N/A   Clear
3:53 PM 39.9 °F 35.1 °F 19.9 °F 45% 30.08 in 10.0 mi WSW 6.9 mph - N/A   Clear
4:53 PM 37.9 °F 35.5 °F 19.0 °F 47% 30.10 in 10.0 mi WNW 3.5 mph - N/A   Clear
5:53 PM 33.1 °F - 19.0 °F 56% 30.14 in 10.0 mi Calm Calm - N/A   Clear
6:53 PM 24.1 °F 19.7 °F 16.0 °F 71% 30.18 in 10.0 mi SSE 3.5 mph - N/A   Clear
7:53 PM 19.9 °F - 14.0 °F 78% 30.22 in 10.0 mi Calm Calm - N/A   Clear
8:53 PM 17.1 °F - 12.0 °F 81% 30.24 in 10.0 mi Calm Calm - N/A   Clear
9:53 PM 14.0 °F - 10.0 °F 84% 30.26 in 10.0 mi Calm Calm - N/A   Clear
10:53 PM 12.9 °F 3.8 °F 9.0 °F 84% 30.26 in 10.0 mi SE 5.8 mph - N/A   Clear
11:53 PM 12.9 °F - 10.0 °F 88% 30.26 in 10.0 mi Calm Calm - N/A   Clear